{"data":{"norad_id":64091,"intl_designator":"2025-108E","name":"2025-108E","alt_names":[],"object_type":"PAYLOAD","status":"ACTIVE","operator":null,"country":"PRC","launch_date":"2025-05-21","launch_site_code":"JSC","launch_vehicle":null,"mission":null,"orbit_class":"UNKNOWN","rcs_meters":null,"size_class":null,"mass_kg":null,"dimensions":null,"purposes":[],"wikipedia_slug":null,"has_3d_model":false,"image_url":null,"decayed_at":null,"tle_current":{"epoch":"2026-09-21T23:09:55.178208Z","epoch_age_seconds":68863,"freshness":"FRESH","line1":"1 64091U 25108E   26264.96522197  .00009682  00000+0  37131-3 0  9999","line2":"2 64091  97.4602 341.6176 0011624  27.3331 332.8517 15.26645382 74205","mean_motion":15.26645382,"eccentricity":0.0011624,"inclination_deg":97.4602,"raan_deg":341.6176,"arg_perigee_deg":27.3331,"mean_anomaly_deg":332.8517,"bstar":0.00037131,"rev_number":7420,"period_min":94.324459168999,"perigee_km":477.87040876397,"apogee_km":493.8278036637,"semimajor_km":6863.9861062138,"source":"CELESTRAK","updated_at":"2026-09-22T09:00:29.533544Z"}}}